Theta_e
310 309 307 307 307 308 309 310 310 310 308 308 308 308 306 304 298 294 293 294 297 296 298 294 294 296 294 294 295 297 297 297 297 299 299 300 302 303 307 311 312 312 312 311 311 311 311 312 313 313 314 314 316 318 318 318 318 318 319 319 320 319 318 317 317 316 316 315 315 316 315 315 315 314
310 308 308 307 307 307 309 310 310 309 309 308 308 308 309 307 302 298 296 295 297 296 297 296 290 292 291 294 296 295 294 295 298 299 300 300 301 302 304 309 311 311 311 311 311 311 311 311 312 312 312 314 315 317 315 315 315 316 317 319 318 317 316 316 315 314 314 315 314 315 314 314 313 313
309 307 307 307 307 307 308 309 309 309 308 308 308 307 308 307 306 303 300 295 296 299 296 297 291 292 292 295 294 297 293 296 300 300 300 299 300 300 303 305 309 309 310 311 311 311 311 311 311 310 311 313 314 314 314 313 314 315 316 317 317 316 315 315 314 313 314 314 314 314 313 313 312 312
308 307 306 305 306 306 308 308 308 308 308 308 308 307 307 306 306 304 301 299 297 300 300 296 293 291 291 294 296 295 294 297 296 297 298 299 298 302 301 303 306 307 309 310 310 310 310 310 310 310 310 313 312 312 312 312 313 313 314 315 315 315 314 313 312 312 313 312 312 312 312 311 311 311
307 306 306 305 305 305 306 307 307 307 307 307 307 307 307 305 303 304 300 299 295 294 296 294 293 294 294 292 294 295 295 296 296 296 295 297 297 297 301 300 301 305 307 308 309 309 309 310 310 310 310 310 311 310 311 311 310 311 313 313 313 313 313 313 312 311 311 311 311 311 310 310 310 309
307 306 305 304 304 303 305 305 306 306 305 305 305 305 306 304 301 302 301 299 296 292 291 290 292 293 296 293 292 295 295 295 295 296 296 296 295 296 296 298 299 303 305 307 308 309 309 309 309 309 309 309 309 310 310 309 308 309 311 311 310 310 311 311 311 310 309 310 310 310 309 309 308 308
307 305 304 304 304 304 303 303 305 305 305 305 305 305 305 304 303 300 300 297 294 291 290 291 290 291 292 293 292 293 295 295 296 296 295 294 294 293 293 295 296 302 305 307 307 308 308 308 308 308 308 308 308 308 308 307 307 308 309 309 309 308 308 308 308 308 309 309 309 309 308 308 308 307
306 305 304 303 303 302 302 302 304 304 305 304 304 304 304 305 303 301 299 297 294 292 289 289 291 291 291 290 291 294 294 295 295 296 293 293 293 292 292 293 294 300 305 305 306 306 307 307 307 307 307 307 307 307 306 306 306 306 306 306 306 306 306 306 307 307 307 308 308 308 308 308 308 307
306 306 305 303 302 302 302 301 302 303 303 304 303 303 303 303 303 301 299 295 295 293 291 289 289 290 291 292 293 294 294 293 292 292 293 293 292 291 289 291 294 299 302 303 303 304 305 305 306 306 306 306 306 306 306 306 305 304 304 303 304 305 305 305 305 305 305 306 306 307 307 308 307 307
306 306 305 303 303 302 301 301 302 302 302 302 302 302 302 302 301 300 297 295 294 294 292 290 288 289 290 290 292 294 295 293 292 291 290 289 289 290 291 290 293 294 296 297 299 301 301 302 304 304 305 305 305 305 305 304 303 301 301 302 302 303 304 304 304 304 304 304 304 305 307 307 307 307
307 307 306 304 304 303 303 302 301 301 301 302 301 301 301 301 300 299 298 293 292 292 290 290 290 290 290 291 290 292 294 294 294 291 290 289 287 288 291 291 289 291 292 295 298 297 297 299 300 301 302 303 303 303 303 302 301 299 300 301 301 302 303 303 302 302 303 303 303 304 304 305 306 307
307 307 307 306 305 304 304 303 302 302 301 301 299 300 300 299 298 297 296 292 291 291 290 289 288 288 288 288 289 290 291 290 290 292 292 290 288 289 289 290 291 288 291 292 292 296 297 298 299 300 301 301 302 301 300 299 298 297 299 300 301 301 301 302 302 301 301 301 302 303 303 303 304 306
307 307 307 306 306 302 300 298 299 300 300 301 298 298 298 296 296 296 295 293 291 291 290 289 290 288 288 289 289 288 289 289 289 291 292 290 290 289 289 287 288 290 291 289 290 291 292 292 292 292 293 294 297 297 296 296 295 296 299 300 301 301 301 301 301 300 300 301 301 302 302 302 302 303
306 307 307 305 300 298 297 296 297 298 298 298 300 299 297 294 295 294 293 292 291 290 289 288 288 287 287 287 289 289 289 291 291 290 289 287 286 287 287 287 285 289 291 290 289 289 289 291 289 290 291 291 291 292 292 293 294 296 299 299 300 300 300 300 300 300 300 300 300 300 301 301 302 302
304 306 306 307 300 297 296 296 296 298 297 297 297 297 296 296 295 293 292 292 291 290 289 288 289 288 287 287 289 290 290 290 289 289 289 288 288 287 286 286 286 287 291 290 289 287 287 290 289 289 289 289 288 288 289 294 295 297 299 299 299 299 299 299 299 299 299 299 299 299 300 300 301 301
304 305 305 305 304 302 300 300 298 297 297 296 296 296 295 295 296 295 294 292 291 290 290 288 288 289 288 288 289 290 290 289 289 289 289 288 288 287 287 287 286 289 290 289 288 287 284 288 289 288 288 288 288 288 291 295 296 298 298 298 298 298 298 298 298 298 298 298 298 298 299 299 299 300
305 304 304 304 305 304 296 296 301 300 298 295 296 295 294 294 295 296 296 295 293 292 291 289 289 289 289 288 289 290 290 290 289 288 288 288 288 289 288 288 288 288 290 289 287 286 286 286 287 287 287 287 287 289 294 296 296 298 298 298 298 298 298 298 298 297 297 297 297 297 297 297 297 297
304 304 304 304 303 303 299 300 301 300 299 297 296 295 295 295 294 294 294 294 293 292 292 291 290 290 291 290 290 290 291 289 289 288 288 288 288 288 289 289 288 289 290 289 287 284 285 286 287 286 286 287 287 287 291 295 296 297 298 298 298 298 297 297 297 297 297 297 297 297 297 296 296 296
304 304 305 304 304 303 301 301 300 300 298 295 295 294 294 294 294 295 294 294 293 292 293 292 292 291 291 291 290 290 291 290 291 290 289 289 288 287 286 285 286 287 289 287 287 283 285 286 286 286 285 286 287 285 291 294 295 296 297 297 297 297 297 297 297 297 297 296 297 297 296 296 296 295
303 303 303 302 302 303 301 298 298 298 298 295 294 293 293 293 295 296 294 294 294 294 294 293 293 292 292 292 290 290 290 289 289 287 287 287 287 287 286 283 284 286 288 287 286 281 283 286 286 285 283 285 285 284 286 294 294 295 296 297 297 297 297 297 297 296 296 296 297 296 296 296 296 295
301 301 302 302 302 302 301 297 298 298 297 294 293 293 291 291 292 293 293 294 294 294 294 294 294 294 295 295 294 294 294 291 290 288 288 287 287 286 284 281 283 285 287 287 287 283 282 284 285 282 282 285 285 284 285 288 294 295 296 296 297 297 297 297 296 296 296 296 296 296 296 296 295 294
300 299 296 298 301 301 301 297 298 298 295 294 293 292 291 290 291 292 291 292 293 293 293 293 293 294 294 294 294 295 294 293 291 290 288 288 288 287 286 283 283 285 286 287 287 283 282 284 283 279 278 280 280 283 283 285 289 294 294 296 296 296 296 296 296 296 296 296 296 296 296 296 295 292
299 298 296 296 299 301 299 298 298 298 296 294 293 293 292 291 291 293 292 291 290 290 290 291 291 291 292 292 292 291 293 292 291 292 291 289 288 287 286 285 284 283 284 287 287 284 282 283 284 282 278 276 276 282 283 285 287 288 289 292 294 295 296 296 296 296 296 296 296 296 296 295 294 288
296 296 297 296 298 299 298 298 298 298 297 295 294 293 293 292 292 293 292 291 292 290 290 290 290 290 290 290 290 291 291 291 290 291 291 290 290 289 288 286 285 284 285 288 287 286 284 284 283 285 283 279 278 280 282 283 285 286 287 288 289 293 295 295 295 296 296 296 296 296 296 295 293 286
296 295 296 297 297 298 298 297 298 297 297 296 294 294 294 294 294 292 292 291 291 291 290 290 290 290 289 290 290 290 291 290 290 290 290 290 291 291 289 287 286 286 288 288 289 286 281 283 282 283 279 276 274 279 280 283 284 285 286 288 288 289 291 291 291 292 295 295 295 295 295 295 294 288
296 296 296 296 296 297 297 297 297 297 297 296 294 295 296 296 295 292 292 292 291 291 291 290 290 290 289 288 288 288 289 289 288 289 289 290 291 292 293 289 287 286 287 288 291 287 283 282 283 282 281 276 274 281 279 279 282 285 286 287 288 288 289 289 288 288 289 291 291 293 293 295 294 292
296 297 297 295 294 296 295 296 297 297 297 296 296 296 297 296 294 293 292 291 292 291 290 290 290 290 290 289 288 288 288 289 289 289 289 289 289 290 291 291 291 291 290 288 288 287 285 283 284 283 281 281 280 279 281 279 279 283 283 285 286 287 288 288 287 287 287 288 288 293 294 294 294 293
297 295 295 295 294 295 295 296 297 297 296 295 296 296 296 294 293 293 292 291 292 291 290 290 290 290 290 290 289 288 289 289 289 289 289 289 289 289 290 289 288 284 286 287 288 288 286 285 284 285 284 282 280 279 279 282 280 282 282 285 285 285 286 287 287 286 285 286 285 288 288 288 290 291
297 295 295 294 294 295 295 295 296 296 295 296 296 295 294 292 292 292 292 292 292 291 290 290 290 290 290 291 290 290 290 289 290 289 289 288 287 284 281 281 284 284 286 286 287 287 287 286 285 285 284 283 282 281 281 280 281 281 282 282 281 282 284 286 286 285 284 285 285 285 286 286 286 287
295 295 294 293 294 294 293 293 294 293 294 294 294 293 293 293 293 292 292 291 291 291 291 290 290 290 289 289 290 289 289 289 288 287 287 285 285 284 283 282 281 279 282 286 287 287 287 287 286 285 284 283 283 282 282 281 280 281 282 282 282 282 283 284 285 285 283 283 284 284 285 285 285 284
294 293 292 293 293 293 293 293 293 293 293 292 293 292 293 293 293 292 292 291 291 291 291 290 290 290 290 290 288 287 287 287 288 288 286 286 285 285 285 285 283 279 278 280 286 287 287 287 286 286 284 283 283 283 283 283 281 281 281 282 282 279 281 284 284 284 283 283 283 282 281 280 281 283
293 293 292 292 292 292 292 292 292 292 292 292 291 292 292 292 291 291 291 291 291 292 292 292 291 288 288 287 288 288 287 287 287 287 286 286 285 284 285 284 284 281 277 279 282 283 285 286 286 286 286 285 283 283 282 283 282 282 281 282 282 282 282 282 283 283 283 282 280 279 280 280 280 281
292 292 291 291 291 291 290 290 291 291 291 291 292 291 292 292 291 291 290 290 290 290 290 290 289 289 288 288 287 287 287 287 286 286 286 286 286 285 285 284 285 281 280 279 280 281 283 283 283 287 286 286 286 285 282 281 282 282 282 282 281 281 280 282 282 282 282 280 279 279 278 279 280 281
292 291 291 291 291 291 291 290 290 290 290 290 290 290 290 291 291 291 290 291 290 289 289 290 289 288 288 287 287 286 286 286 285 286 286 286 286 285 284 284 285 284 283 282 280 281 281 280 279 279 280 279 277 281 284 283 282 282 282 282 281 280 280 281 281 281 281 280 280 278 278 277 278 280
292 291 291 290 290 290 291 290 290 289 290 289 290 290 290 290 290 290 290 290 290 289 289 289 289 288 288 287 287 286 286 286 285 285 286 286 286 285 285 284 285 283 282 282 281 280 280 279 280 279 277 278 280 281 281 278 282 281 282 281 281 281 280 280 281 280 281 280 280 278 277 277 277 278
292 292 291 290 290 290 290 290 290 290 290 290 290 289 289 289 290 290 289 289 289 289 289 288 288 288 288 288 287 287 287 286 285 285 284 285 285 285 285 285 285 284 283 283 282 281 280 280 281 280 279 279 279 279 281 284 283 283 281 280 281 281 281 280 280 280 279 279 278 278 276 276 276 278
291 291 292 291 290 290 290 290 290 290 290 290 290 290 289 289 289 289 290 289 289 289 289 289 288 288 288 288 287 287 287 286 286 285 285 285 285 285 285 284 285 285 283 283 283 281 280 280 281 281 280 279 278 278 279 276 280 284 284 281 281 281 281 279 278 278 278 279 278 278 278 278 277 278
291 291 291 291 290 290 290 290 290 290 290 290 290 290 290 290 290 289 289 289 289 289 289 289 289 288 288 288 287 287 287 286 286 286 285 285 285 285 284 284 284 284 283 283 282 281 280 281 281 282 281 280 279 278 278 273 274 280 283 285 282 281 279 278 277 277 277 278 278 279 279 278 278 278
291 291 291 291 290 290 290 290 290 290 290 290 290 290 290 290 289 289 288 289 289 289 289 289 289 288 288 288 288 287 286 286 286 286 285 285 285 285 285 285 285 285 284 282 282 281 281 280 281 282 282 282 281 281 282 278 278 282 284 284 283 279 277 278 277 278 277 277 278 277 274 273 276 278
289 291 291 291 290 290 290 290 290 290 290 290 290 290 290 289 289 289 289 288 289 289 289 289 289 289 288 288 288 288 287 287 286 286 286 286 285 286 285 285 285 285 284 283 281 280 280 280 281 282 283 285 284 282 283 280 275 276 280 283 284 282 279 279 279 278 277 278 278 276 275 273 272 270
286 287 288 289 289 290 290 290 290 290 290 290 289 289 290 289 289 289 289 289 289 289 289 289 289 289 289 289 288 288 287 287 287 287 286 286 286 285 285 285 285 285 284 283 282 281 280 281 283 285 285 279 276 280 279 277 276 275 277 279 282 283 283 282 281 280 278 278 277 276 275 273 273 271
273 276 279 283 287 288 289 289 289 290 289 289 289 289 289 289 289 289 289 288 288 289 289 289 289 289 289 289 288 288 288 287 287 287 287 286 286 285 285 285 285 285 285 284 284 283 284 284 282 282 280 279 281 280 279 280 280 277 276 278 279 282 284 283 284 283 282 278 276 274 272 270 270 270
266 266 267 269 271 276 281 287 288 289 289 289 289 289 289 289 289 288 288 288 288 288 289 289 289 289 289 289 289 288 288 288 287 287 287 287 286 286 285 285 286 286 286 286 286 286 284 283 282 281 280 280 280 281 280 281 281 276 274 276 278 279 280 283 283 282 282 281 281 279 278 276 273 271
263 263 263 264 264 266 267 270 278 285 286 287 288 288 289 288 288 288 288 288 288 288 288 289 289 289 289 289 289 288 288 288 288 288 287 287 287 287 286 286 286 286 286 286 286 284 282 281 281 281 280 279 281 280 280 281 280 276 275 276 277 277 277 278 279 280 280 281 281 281 281 281 280 280
262 262 262 262 263 263 264 265 267 272 280 285 286 286 287 287 288 288 288 288 288 288 288 288 288 288 288 288 288 287 288 288 288 287 287 287 286 286 286 286 285 285 285 285 284 280 280 281 281 281 280 280 281 280 280 280 278 276 274 274 275 276 277 277 275 275 275 275 279 281 280 280 280 280
Wind_Speed
20 17 20 16 13 12 12 12 13 13 11 13 15 16 18 18 18 13 13 12 10 7 7 9 5 4 3 5 5 7 7 10 12 6 7 8 7 10 13 13 12 11 12 11 12 12 13 14 15 14 13 12 12 15 14 12 13 13 13 13 14 18 18 17 16 17 17 18 17 17 17 18 18 18
18 17 17 15 14 14 14 15 15 13 13 13 14 15 14 14 17 14 16 11 6 8 5 3 6 5 5 5 5 5 5 11 11 7 7 7 6 10 12 12 11 11 12 12 12 13 13 14 15 14 13 13 15 15 15 17 17 17 17 17 18 20 20 19 18 18 18 19 19 19 19 18 18 19
17 18 19 16 15 15 16 15 14 14 14 14 13 13 12 13 16 15 12 11 5 8 11 5 4 10 7 6 6 5 5 9 10 8 7 6 9 12 9 11 11 11 12 12 12 13 14 14 15 15 15 17 18 18 18 18 18 18 18 19 20 20 19 19 18 19 20 19 19 19 19 19 18 18
15 18 19 17 15 14 14 15 15 15 14 14 13 13 13 13 13 13 12 14 11 9 12 9 8 7 6 8 9 7 6 7 10 6 7 7 11 8 5 10 12 11 12 12 13 14 15 16 17 17 17 19 19 19 18 18 18 17 17 18 20 20 18 17 17 19 18 19 19 20 19 19 19 18
18 19 19 18 17 15 15 14 14 14 14 14 13 13 13 12 11 14 12 14 9 4 4 9 11 11 9 5 6 9 8 8 6 7 6 7 7 6 6 6 11 11 11 12 14 15 16 17 18 18 18 18 19 19 18 17 17 17 17 18 19 20 20 20 19 17 17 18 19 19 19 19 19 19
17 19 20 19 16 16 18 16 15 15 14 14 14 14 15 14 10 11 14 12 12 9 6 6 6 8 11 8 5 10 10 7 7 9 7 5 6 7 6 7 6 11 11 12 14 15 17 18 18 19 18 18 19 19 18 17 17 17 17 16 17 17 19 20 20 18 16 19 19 19 19 19 20 20
19 20 19 19 18 15 16 16 16 15 15 13 15 15 14 14 12 9 9 11 12 14 8 9 10 8 5 7 7 6 6 6 8 10 8 8 6 4 6 7 5 10 12 13 14 16 17 18 18 19 19 18 18 18 18 18 17 16 16 17 17 17 17 17 18 18 18 19 20 20 20 21 22 21
20 20 19 19 18 18 19 17 16 15 15 14 13 14 13 14 15 11 10 10 11 10 12 8 12 10 10 3 4 6 7 9 8 8 7 7 7 6 6 7 6 8 13 14 15 16 17 18 18 19 19 18 18 18 18 17 17 16 16 16 16 16 16 17 19 19 20 20 21 21 22 22 21 20
19 20 21 20 18 17 17 15 15 15 17 15 14 15 13 13 13 12 11 10 11 13 14 10 5 9 7 7 11 11 10 7 6 5 8 8 8 6 5 5 6 10 13 14 15 16 17 18 18 18 18 18 18 18 18 17 17 17 17 17 16 17 17 17 17 17 17 18 20 21 22 21 21 19
19 18 18 19 19 19 19 18 17 16 18 15 15 15 14 13 12 14 12 12 12 13 14 15 10 8 11 8 7 10 12 13 10 7 6 5 5 7 7 4 4 4 6 6 8 12 14 16 18 18 18 18 18 18 18 18 18 17 17 17 17 17 17 17 17 17 17 17 17 18 20 21 21 20
20 21 21 20 20 21 20 20 18 17 17 15 16 16 15 14 13 14 13 13 14 14 14 12 14 13 9 13 13 8 9 12 14 15 10 6 2 4 9 8 3 4 5 5 9 9 9 12 12 15 17 18 19 19 19 18 18 18 18 18 18 18 17 17 17 17 16 16 16 17 17 19 20 20
20 19 20 22 22 22 21 20 19 19 17 15 14 14 14 14 15 14 13 12 13 13 14 14 12 11 12 5 4 8 10 9 4 7 11 13 10 9 5 6 10 4 7 7 6 8 10 10 13 15 15 17 18 19 18 19 18 19 19 19 19 18 18 18 18 17 16 16 15 15 16 17 18 20
20 20 21 21 21 22 23 26 23 22 20 16 16 15 15 15 15 14 13 13 12 12 13 11 11 12 12 13 14 12 11 13 14 10 9 10 10 10 9 3 2 6 10 7 7 6 8 10 8 8 7 8 13 14 16 15 19 19 19 19 19 19 19 19 19 18 17 16 15 15 14 15 16 17
20 21 19 18 27 28 27 26 27 26 24 22 18 16 15 15 15 16 15 14 14 14 14 14 14 13 13 12 14 15 13 12 11 12 10 11 9 8 7 5 3 6 10 10 10 7 5 9 8 8 9 8 9 9 10 10 12 17 20 20 18 19 19 18 19 18 18 17 16 15 14 14 15 15
18 18 20 18 21 23 24 23 28 27 26 24 23 21 20 17 17 16 17 15 15 15 15 14 14 15 15 15 15 16 16 14 16 15 14 14 14 14 14 13 5 5 11 12 11 9 7 9 11 9 8 9 8 7 9 11 16 19 18 18 17 17 16 16 18 18 18 17 16 16 15 14 15 15
17 18 18 16 15 17 20 19 20 24 27 24 23 24 23 24 24 23 20 17 15 16 15 15 16 15 16 16 15 14 14 13 11 13 13 14 16 15 14 12 14 11 11 10 10 8 3 5 10 9 9 9 9 9 11 16 15 18 20 20 19 19 18 18 19 19 18 17 17 16 16 16 15 15
18 18 18 16 15 15 25 21 19 19 21 24 26 24 23 23 24 23 25 26 23 19 19 19 16 18 17 18 17 17 18 16 17 15 14 14 15 16 16 14 12 12 15 13 11 11 9 7 8 10 8 8 8 9 14 19 18 20 20 21 21 20 20 20 20 20 19 19 18 18 16 16 16 16
17 19 19 18 17 16 17 17 19 18 18 18 18 18 16 16 20 24 26 24 22 19 16 17 19 16 16 20 18 16 17 19 18 17 16 16 16 18 20 15 11 12 15 18 13 9 9 10 10 11 9 8 8 9 12 18 18 19 22 21 21 21 21 21 21 21 21 21 21 20 20 18 17 17
18 19 20 21 21 19 18 17 21 20 19 18 18 19 18 16 15 16 16 16 15 14 12 15 15 14 11 8 10 12 12 16 14 15 15 15 11 6 8 10 9 9 10 7 10 13 13 10 10 10 8 8 8 6 11 19 19 20 22 23 21 21 21 21 21 21 21 21 21 21 20 20 19 18
17 17 17 17 17 19 20 22 27 24 20 20 21 21 18 16 15 15 16 19 18 17 15 14 15 15 16 17 16 16 15 12 10 11 11 10 10 11 9 8 8 11 10 10 12 6 10 11 14 10 7 8 9 8 8 14 21 20 21 22 20 21 20 20 20 20 21 21 21 21 21 20 20 18
15 15 18 18 17 19 19 24 28 27 25 20 22 20 18 15 14 13 10 18 22 21 20 19 19 19 19 20 21 24 25 18 15 12 11 12 12 12 11 7 9 12 13 11 10 7 10 10 9 8 7 10 9 9 10 9 15 21 19 22 21 20 20 20 20 20 21 21 21 20 21 21 18 17
13 16 22 21 18 18 19 27 29 29 24 20 21 20 19 18 17 14 11 10 13 20 20 20 20 20 20 21 22 24 24 25 21 18 17 15 14 15 15 15 12 9 11 12 8 8 8 10 6 7 4 3 3 8 7 8 10 18 17 20 20 20 21 21 20 20 20 20 20 20 21 22 18 12
11 13 18 24 21 22 22 31 30 31 26 21 21 21 21 21 20 18 15 15 13 12 12 12 14 14 18 16 16 18 27 26 22 19 18 15 16 15 12 9 8 7 7 10 12 11 8 12 10 11 7 4 4 6 9 10 10 10 10 11 13 18 19 21 20 20 21 20 21 21 21 21 15 9
9 12 13 19 26 26 26 29 31 31 31 23 21 20 21 22 24 17 18 17 17 16 16 14 12 13 12 13 14 16 19 20 19 17 15 16 16 16 15 14 14 13 12 14 18 16 10 14 14 13 12 11 10 9 10 9 10 10 9 10 9 15 18 17 16 22 21 21 23 23 22 23 16 10
12 12 13 13 22 27 29 31 33 32 32 27 22 23 23 23 20 18 17 19 23 17 15 14 12 11 12 12 12 14 16 15 15 14 14 16 16 16 15 14 14 13 11 14 21 10 7 11 13 12 6 2 3 7 7 9 9 9 11 12 11 11 11 12 9 11 17 21 22 23 23 24 21 13
12 14 13 13 20 26 27 31 34 35 34 32 20 23 27 25 25 21 17 16 14 14 13 13 13 12 12 12 12 13 13 14 14 13 12 14 15 15 17 20 19 16 14 14 28 18 12 12 14 15 11 7 3 8 8 7 8 11 9 10 11 11 12 11 10 10 10 10 12 15 17 24 21 20
14 13 14 15 22 25 27 30 32 32 34 29 22 28 24 24 27 23 14 13 15 14 14 14 15 15 15 14 14 14 14 14 15 14 13 13 14 14 12 14 17 20 14 16 22 16 13 12 14 17 15 12 11 9 10 11 7 9 9 10 11 11 11 11 12 12 11 11 10 15 18 21 23 22
13 12 13 15 25 27 28 31 31 31 32 24 28 27 26 26 25 17 16 16 16 15 16 17 17 17 16 16 15 15 15 15 15 15 14 14 16 16 14 12 9 3 8 16 21 20 16 14 15 16 17 17 15 15 13 9 6 14 16 13 11 10 10 12 12 10 9 10 9 10 10 11 13 14
14 17 22 24 27 27 28 30 31 28 29 30 26 26 26 25 15 14 15 17 17 17 18 18 18 16 16 16 16 14 14 14 13 12 12 10 7 4 5 3 5 7 9 12 18 20 17 15 16 16 14 13 14 13 14 16 14 15 15 15 11 12 13 13 12 12 12 11 11 12 14 13 11 11
22 22 23 27 28 26 25 21 18 16 20 27 25 25 25 16 16 16 15 15 17 18 17 16 16 15 13 12 10 12 13 14 15 15 13 11 9 10 9 5 3 3 6 13 15 16 16 13 13 16 15 13 14 13 13 11 10 11 14 17 15 8 9 10 13 13 12 12 13 13 11 11 12 12
15 20 21 19 22 18 25 24 23 23 24 20 17 14 15 14 15 16 17 18 19 18 16 15 13 12 11 10 11 12 14 16 15 14 14 14 14 13 13 13 11 7 3 4 10 14 15 14 13 17 17 15 12 13 13 13 15 13 14 13 14 16 14 16 14 13 14 14 12 10 8 9 10 11
15 16 17 20 17 15 15 15 13 12 12 13 13 13 13 13 13 15 16 14 12 12 13 13 11 10 11 13 15 14 14 14 13 13 13 14 13 12 12 12 14 10 6 6 8 8 12 12 13 14 17 18 18 13 9 12 15 16 16 17 16 13 10 19 17 16 16 13 10 11 13 13 13 12
12 12 13 12 14 14 15 13 13 13 15 14 15 17 15 14 13 12 11 12 13 12 10 12 14 15 15 15 13 13 13 13 12 12 13 12 13 12 13 17 15 12 12 10 9 11 11 10 8 13 14 13 15 17 16 13 13 13 16 16 15 13 10 14 16 17 14 13 14 14 14 12 12 13
13 13 14 15 16 16 15 15 14 14 14 15 15 14 15 14 14 15 16 15 13 11 12 12 12 13 13 13 14 14 14 12 11 12 15 13 12 13 15 16 14 13 13 13 12 13 12 9 5 3 2 2 2 8 15 18 17 13 12 13 16 16 12 13 14 14 17 19 19 15 13 11 11 11
14 14 14 13 14 14 14 14 14 14 15 15 15 15 14 13 15 15 14 14 12 13 13 12 12 12 13 14 14 15 14 14 13 12 12 12 13 15 17 16 15 13 14 13 12 10 11 12 10 8 4 4 5 8 7 5 10 12 11 12 14 14 13 12 13 14 17 14 12 15 14 12 12 12
13 14 15 14 14 14 14 14 13 14 14 14 15 14 14 15 14 16 15 13 13 13 13 13 13 13 13 12 13 13 13 14 13 14 15 14 15 15 13 15 15 14 14 15 14 11 12 13 14 15 15 13 13 14 16 13 11 12 15 14 13 14 13 13 15 14 15 13 12 13 14 16 16 15
11 11 12 14 13 14 14 14 13 13 13 13 13 14 15 16 15 14 13 13 13 13 14 14 14 14 14 13 13 13 13 14 15 15 16 16 15 15 15 15 14 13 12 12 10 11 12 14 15 17 17 16 17 20 15 5 10 10 15 16 14 15 15 13 12 11 12 14 14 15 17 16 15 14
11 9 9 10 12 12 12 12 12 12 12 12 13 13 13 13 12 11 9 11 13 12 14 15 15 15 15 15 15 15 14 14 14 14 15 16 16 15 16 16 13 12 12 12 11 13 13 15 17 19 19 20 20 19 14 2 2 9 19 17 18 17 12 13 13 14 13 12 16 15 10 12 13 11
7 8 8 8 8 10 11 11 12 12 12 12 12 13 12 11 11 11 11 13 14 13 13 13 12 13 15 16 16 16 15 15 15 15 15 15 16 17 16 15 15 14 12 13 12 12 13 15 18 19 19 19 21 20 17 13 16 18 20 23 11 12 12 15 16 14 15 14 13 7 2 2 6 8
2 5 7 7 8 9 9 10 10 11 11 11 11 10 10 11 12 13 13 13 12 12 13 13 14 13 12 12 13 14 15 18 19 17 17 17 17 17 15 15 16 15 13 14 14 14 17 19 19 18 18 17 12 4 6 6 2 4 7 16 16 19 18 16 17 17 14 14 12 11 12 5 4 0
8 5 3 0 3 7 9 10 10 10 10 10 9 9 9 10 11 11 12 13 13 13 13 12 12 12 13 14 14 15 16 16 16 16 16 16 18 19 20 19 15 14 15 16 17 17 19 21 18 15 11 2 6 9 8 5 11 8 9 12 16 21 21 21 18 17 15 14 14 15 13 12 11 7
9 9 9 9 5 0 3 7 8 10 10 10 10 10 9 9 10 12 12 13 13 14 14 14 14 14 13 12 13 13 15 16 16 17 17 16 16 16 18 15 15 15 17 19 20 21 17 8 7 8 7 8 8 12 17 18 19 13 11 9 9 13 15 16 13 11 12 16 15 10 6 5 4 6
10 9 9 9 8 9 7 3 3 6 8 9 10 10 10 10 9 10 10 12 13 13 13 13 13 13 14 13 13 13 14 14 14 15 15 16 16 17 17 17 18 18 18 18 16 12 9 12 12 10 8 11 13 13 16 15 11 7 7 8 11 10 8 8 9 7 10 9 14 17 17 16 14 13
10 10 9 9 9 8 8 8 8 5 2 4 6 7 9 10 11 11 12 12 12 12 12 12 12 13 13 13 13 13 14 14 13 14 14 15 16 15 15 16 17 17 16 16 12 9 10 12 14 15 14 15 15 14 17 15 12 10 13 11 9 12 13 9 8 6 6 13 12 7 9 9 7 9
10 9 9 9 10 9 9 9 8 7 7 4 3 4 5 6 7 8 9 9 10 11 11 11 11 11 12 12 12 13 14 14 13 11 10 10 10 11 11 12 13 14 14 12 11 8 9 10 11 12 14 15 14 14 14 11 6 6 6 9 12 13 12 12 13 12 10 7 11 13 14 15 13 14
Wind_Direction
182 180 177 177 180 172 167 164 164 164 157 161 165 169 171 169 162 164 173 195 172 179 182 152 210 188 190 153 143 140 150 150 150 144 143 152 158 168 167 169 173 180 186 190 189 184 179 173 166 167 175 179 162 151 153 145 132 127 123 125 132 129 125 127 136 144 144 146 144 138 133 132 132 130
178 179 180 177 175 171 171 172 168 165 163 163 169 174 176 172 170 174 174 178 184 152 177 152 150 184 189 152 149 140 142 149 141 139 141 150 159 168 168 171 176 182 187 191 190 184 179 172 166 166 165 156 142 131 127 125 124 124 123 123 126 129 133 138 147 151 151 148 144 137 134 135 135 133
176 176 179 178 177 173 175 169 165 165 164 168 170 172 171 181 183 174 171 152 196 160 171 171 149 156 170 155 138 122 129 152 144 141 145 154 163 162 171 174 179 183 186 189 185 180 173 165 156 149 146 138 132 131 131 130 129 130 129 129 128 130 136 142 149 155 153 146 141 139 138 137 137 137
178 176 178 178 177 175 173 171 169 167 168 168 169 173 173 182 184 175 165 175 171 178 169 150 143 155 155 148 142 130 134 151 143 136 140 149 150 156 165 174 174 179 179 178 174 167 161 153 146 143 141 138 136 134 134 133 132 132 134 134 134 135 139 144 152 153 148 145 144 143 142 141 140 139
179 179 179 178 178 173 172 176 170 166 165 167 169 171 172 179 179 171 174 174 142 99 100 142 157 160 143 131 145 132 138 143 129 121 128 137 144 152 157 159 163 165 166 165 163 158 154 148 145 143 140 138 137 136 136 134 133 135 138 140 141 144 147 150 150 148 147 147 146 145 146 145 142 141
180 181 179 178 176 175 176 174 176 168 164 165 168 174 176 177 174 181 169 173 150 147 139 109 121 149 155 139 160 146 146 141 129 128 128 124 136 147 142 141 154 153 154 155 156 153 150 146 143 141 139 137 136 137 136 136 138 139 139 140 142 146 151 153 149 148 150 149 148 147 146 145 146 146
182 181 181 179 174 174 174 175 178 173 170 166 168 172 175 175 170 167 166 146 153 148 158 144 139 153 158 147 157 146 140 132 131 130 135 136 131 131 136 134 138 149 148 151 150 148 145 141 140 139 139 139 139 138 139 140 141 140 139 140 143 149 151 150 148 148 150 150 150 150 150 152 152 151
180 180 179 179 176 174 175 176 175 176 174 173 172 169 172 173 175 168 160 155 146 149 137 170 154 163 145 114 125 129 132 139 136 135 125 122 129 138 135 136 138 150 148 149 149 147 144 142 141 141 141 140 140 140 140 141 140 138 139 140 144 147 147 147 150 152 153 152 152 154 155 155 154 152
181 180 179 175 174 176 174 173 175 177 178 179 174 175 171 169 168 166 162 155 149 149 153 154 156 152 145 143 151 151 140 121 104 113 134 144 141 130 129 126 141 146 147 149 150 148 146 143 142 141 141 141 142 142 142 142 140 141 143 145 147 148 149 151 152 152 154 154 154 157 157 156 155 154
184 178 179 173 173 175 176 176 179 177 179 176 176 175 173 168 160 162 159 152 156 155 156 151 143 155 142 133 156 163 146 139 130 111 99 102 126 131 119 128 136 136 141 146 147 146 144 144 142 142 142 143 143 144 145 144 145 146 148 150 150 151 153 154 153 154 155 154 155 157 157 158 158 157
184 180 177 176 177 178 178 176 175 174 176 178 178 175 171 168 163 164 160 153 154 154 151 158 157 153 158 154 158 175 155 148 153 147 139 126 141 131 141 140 131 124 118 127 139 143 145 143 141 142 141 141 145 148 148 148 149 151 152 152 154 156 157 156 155 155 154 154 157 159 159 160 160 159
184 183 181 178 180 181 180 176 175 171 174 174 171 172 168 168 164 165 159 150 151 152 154 155 157 155 147 125 113 135 138 126 119 164 150 154 161 167 164 159 149 143 128 129 121 129 125 127 133 137 143 148 149 149 149 150 151 153 154 155 158 159 159 159 157 156 155 158 160 161 162 162 163 162
184 184 184 183 182 181 180 178 174 174 173 170 172 173 169 166 163 163 161 156 151 153 152 154 153 152 158 159 152 157 164 163 163 178 173 164 159 147 133 134 151 154 140 132 126 143 148 136 141 138 136 151 149 151 151 153 154 156 158 160 161 162 162 160 159 158 159 162 163 164 164 165 166 166
182 183 186 189 183 180 180 179 175 173 172 175 176 173 170 165 162 163 162 163 162 157 159 162 160 158 164 165 166 162 173 172 163 162 152 139 140 128 123 131 189 168 144 144 152 168 167 141 141 147 152 163 154 158 159 167 163 162 162 163 162 163 162 160 160 160 162 165 167 167 167 168 168 166
183 184 185 186 185 181 180 179 178 172 175 176 173 171 172 172 165 162 164 168 165 165 164 163 164 166 166 173 171 173 172 176 170 166 163 158 155 158 156 173 191 226 166 161 154 169 185 155 157 164 160 162 157 162 167 163 166 166 165 164 164 163 161 159 161 164 165 166 168 169 170 172 170 169
181 183 184 183 181 184 182 180 181 177 176 174 173 173 171 173 172 170 169 165 167 169 164 168 175 167 173 172 176 179 172 167 162 171 164 163 164 165 173 170 181 188 171 152 154 157 193 160 153 162 176 170 169 167 168 170 169 171 170 171 170 169 169 168 167 167 168 168 168 168 171 173 173 170
180 179 180 182 183 189 182 177 180 180 179 177 175 175 173 175 175 175 174 172 173 172 169 172 175 179 172 173 187 180 172 165 169 168 169 170 173 177 178 185 175 163 165 149 155 167 188 166 170 174 177 170 168 171 176 177 177 178 176 175 175 174 174 173 172 171 173 175 174 174 173 173 173 170
183 182 179 181 183 181 179 181 180 179 177 178 176 175 176 180 184 178 176 176 171 172 176 174 180 186 172 182 180 176 164 168 175 171 178 175 177 182 191 183 167 159 165 168 160 159 178 177 170 185 186 173 171 178 183 181 183 182 182 180 178 177 177 177 176 176 178 179 180 179 179 179 178 175
184 184 185 184 181 177 179 184 180 176 175 174 177 179 182 184 185 183 180 176 174 174 172 175 178 174 185 169 153 163 175 178 173 177 177 174 168 134 68 69 106 149 182 160 147 173 182 174 172 194 171 174 176 176 187 187 187 188 187 186 183 181 181 180 179 179 180 181 182 181 182 183 182 180
183 182 182 180 181 179 180 181 179 177 172 173 177 179 180 182 185 188 185 176 173 173 175 177 177 181 176 167 164 167 164 155 136 117 108 109 126 138 137 130 148 165 189 182 173 145 171 181 183 177 157 158 173 179 189 195 192 193 191 189 186 185 184 184 183 183 184 185 184 183 184 183 183 181
178 178 179 178 179 178 183 180 178 176 169 172 174 174 174 176 178 183 175 175 172 172 173 174 174 170 169 168 168 166 162 160 145 127 133 159 152 154 154 154 158 182 178 196 193 139 159 184 177 148 168 174 175 179 189 196 195 193 193 193 190 188 188 188 187 186 187 187 186 186 187 186 184 179
177 177 181 177 175 179 183 179 180 172 168 172 173 172 170 171 176 177 167 159 167 163 161 164 167 170 171 166 162 164 165 161 156 160 175 170 164 175 172 173 180 163 180 190 167 137 176 157 151 114 109 115 180 185 189 188 196 195 195 194 192 192 192 191 189 188 189 187 187 187 188 188 183 177
179 176 179 180 178 181 184 179 178 175 173 173 174 173 171 176 181 181 167 161 156 159 157 163 163 172 168 158 161 168 167 169 172 178 172 161 171 173 175 155 128 130 202 200 177 171 158 160 174 148 125 187 237 191 182 188 188 187 188 192 193 194 192 194 192 192 192 189 189 189 187 186 176 175
185 176 180 188 184 181 177 178 179 179 178 177 175 171 178 180 186 175 168 169 164 168 168 167 162 163 163 160 163 169 171 174 177 178 172 174 172 172 170 168 172 183 191 192 181 186 175 173 173 180 176 152 190 191 180 185 185 186 179 180 188 194 191 193 196 196 192 191 191 191 189 187 176 174
182 181 185 184 192 181 177 178 180 180 183 181 176 179 184 189 175 158 167 171 166 167 168 164 163 160 163 168 169 172 175 176 178 178 175 175 177 172 172 173 179 198 195 183 180 186 160 178 173 175 203 151 135 135 180 173 183 179 187 186 186 190 185 193 190 194 196 195 193 192 191 191 183 176
186 182 183 185 189 186 180 181 181 181 181 180 180 190 188 175 155 165 169 164 162 162 163 165 166 166 167 168 172 174 177 178 178 179 176 180 185 186 179 175 181 195 195 176 178 182 152 179 175 175 184 144 147 149 137 179 188 191 183 191 193 190 187 185 185 192 192 190 192 197 195 195 189 184
185 179 179 181 183 183 180 183 184 182 181 179 188 188 181 168 165 164 159 159 164 167 167 166 177 181 177 173 176 177 178 180 179 180 180 183 188 195 198 195 187 192 182 162 178 178 169 175 176 178 179 182 158 166 163 158 184 183 190 193 196 194 190 182 189 192 189 186 192 190 190 197 197 194
180 171 175 177 181 182 181 184 185 184 181 186 187 179 172 167 166 165 163 166 174 174 175 181 184 188 187 181 178 180 177 175 180 181 181 187 191 194 196 193 198 167 135 168 174 184 183 174 180 190 179 173 168 168 181 201 166 173 185 191 191 189 188 192 194 186 185 187 179 185 182 194 200 193
179 177 173 173 179 181 180 181 181 183 185 189 182 172 167 165 161 167 169 172 175 178 184 188 188 188 187 185 184 173 169 170 171 176 191 189 172 137 95 111 159 160 158 175 179 183 186 180 179 181 183 186 179 186 173 182 172 183 183 166 188 195 194 194 187 186 190 187 186 189 195 191 188 187
175 169 165 169 175 177 178 175 177 180 187 187 178 171 167 168 170 174 172 175 179 187 188 186 185 185 180 180 169 165 166 167 180 182 178 162 163 163 160 145 187 162 176 177 182 186 187 184 176 177 184 190 190 180 187 159 186 187 181 187 186 162 197 177 191 194 182 189 195 198 199 191 190 181
166 163 164 172 173 173 172 172 176 180 180 177 173 168 170 175 177 179 178 181 187 189 184 183 183 173 167 154 146 164 175 186 187 179 174 177 180 174 180 186 190 182 187 197 193 187 189 187 180 175 182 191 193 198 185 177 179 176 188 189 167 179 183 188 196 189 192 193 193 192 185 188 195 198
162 163 167 165 163 161 165 172 169 168 167 169 165 166 173 180 180 185 188 185 188 186 182 178 164 148 151 166 180 177 181 185 178 176 176 180 180 179 173 186 200 180 155 173 197 211 201 191 183 190 191 183 189 195 179 194 189 183 184 188 192 197 166 183 184 195 192 183 178 193 197 196 195 194
150 148 150 152 158 163 166 165 172 172 171 174 177 176 177 176 174 175 176 184 192 187 177 176 174 175 174 176 172 173 180 184 175 177 181 184 176 179 183 195 191 176 183 183 187 195 198 199 207 197 197 200 197 179 176 197 210 190 185 184 186 189 177 192 189 187 172 175 195 193 201 202 200 195
149 156 158 165 168 170 170 170 171 173 174 173 175 181 180 178 178 181 186 189 181 175 179 180 177 176 172 173 174 179 180 174 173 177 182 181 180 176 192 200 199 192 192 187 185 185 185 179 167 165 199 250 334 206 196 193 194 185 189 182 185 192 190 184 193 181 177 188 187 192 201 203 207 203
155 160 164 167 170 170 169 170 173 174 175 176 175 176 178 183 185 188 189 186 173 176 178 176 180 178 177 179 178 179 179 175 175 175 187 185 187 194 194 197 198 189 192 192 187 183 171 172 163 159 155 211 243 269 246 210 188 180 171 183 191 193 185 186 184 185 191 197 189 191 194 199 205 208
165 169 169 168 170 170 172 174 172 174 176 177 176 173 175 185 189 186 191 183 176 176 174 175 178 178 183 184 181 181 177 175 175 179 185 191 194 201 201 205 202 195 193 195 189 175 172 175 175 178 186 192 204 218 233 194 167 172 176 188 191 193 191 184 190 187 186 188 185 185 190 200 208 205
164 172 171 170 170 171 174 171 171 175 177 175 177 178 182 186 190 192 186 167 174 178 180 178 181 182 182 179 179 183 182 181 185 186 190 194 196 195 198 206 205 198 193 200 177 171 176 180 186 185 188 194 201 216 213 93 207 215 182 183 190 196 189 180 174 181 191 184 184 194 201 198 208 206
166 170 176 172 169 172 169 169 171 174 177 179 179 184 189 188 183 178 158 168 185 183 183 185 185 184 183 181 180 184 187 191 190 189 194 192 193 199 203 202 198 194 192 187 174 183 190 190 190 195 193 195 202 212 205 174 175 227 218 197 191 193 171 162 174 181 184 191 198 202 195 206 216 209
162 170 175 177 174 165 162 168 173 176 179 180 184 186 185 179 171 165 171 182 184 183 185 191 192 189 188 187 187 184 185 185 190 196 198 197 200 201 200 198 197 196 182 187 184 188 190 204 203 202 200 201 204 206 196 171 206 207 202 206 196 159 171 175 180 183 183 187 201 187 192 25 65 123
138 187 187 175 172 168 167 163 170 173 175 182 185 186 180 177 175 174 178 183 183 186 190 194 191 189 195 193 192 188 189 191 193 195 194 197 201 203 203 200 198 190 185 189 190 195 199 208 206 202 204 212 223 214 166 177 35 44 159 197 190 177 178 174 182 182 192 195 173 171 189 152 170 29
15 29 6 327 174 181 174 173 172 172 176 177 177 177 180 181 179 180 182 180 180 182 189 193 192 193 194 194 195 192 194 197 199 198 198 201 200 200 200 194 195 190 190 197 200 201 207 211 207 202 200 112 89 98 96 144 211 199 180 195 197 197 189 187 183 181 185 174 171 184 182 186 193 162
16 15 12 10 10 45 175 175 171 171 174 173 173 176 179 181 190 182 179 176 180 188 188 189 190 194 198 196 196 197 202 202 200 200 198 199 203 206 203 196 197 198 199 206 204 207 206 161 117 157 161 143 162 180 206 206 211 194 193 181 185 200 202 204 209 202 185 164 160 156 118 61 104 191
18 15 11 3 2 4 4 8 171 176 175 172 176 175 176 179 177 177 179 184 186 189 193 193 194 193 196 194 195 197 203 210 208 208 203 201 202 201 199 200 202 202 203 212 215 201 152 162 176 170 167 190 208 210 217 216 211 147 173 181 187 181 187 182 174 138 161 193 195 182 181 174 158 198
15 14 10 6 7 4 1 355 355 15 78 144 168 169 178 178 181 184 186 187 186 190 193 193 192 194 197 195 195 198 203 208 206 206 207 207 206 206 207 207 206 206 206 209 203 184 164 169 177 181 184 201 205 208 219 214 200 177 187 183 173 172 186 174 162 145 151 177 184 122 103 77 59 46
11 16 19 17 21 18 8 2 359 350 2 44 104 159 173 180 185 184 187 188 191 192 191 192 194 196 197 194 192 199 203 204 203 204 205 211 216 216 217 213 212 211 208 202 188 166 172 177 177 178 196 206 205 209 220 221 197 164 167 165 183 189 185 171 170 181 180 172 192 166 121 116 93 87